Yakima, WA

12:25 AM PDT on May 28, 2017 (GMT -0700)
Yakima Air Term-McAllister

Weather History for KYKM - May, 2012

Change the Weather History Date:

Thursday, May 3, 2012

  Actual Average Record
Temperature  
Mean Temperature 51 °F 53 °F  
Max Temperature 59 °F 69 °F 87 °F (1971)
Min Temperature 43 °F 38 °F 27 °F (1959)
Degree Days  
Heating Degree Days 14 12  
Month to date heating degree days 44 36  
Since 1 July heating degree days 5434 5718  
Cooling Degree Days 0 0  
Month to date cooling degree days 0 0  
Year to date cooling degree days 7 1  
Growing Degree Days 2 (Base 50)    
Moisture  
Dew Point 40 °F    
Average Humidity 68    
Maximum Humidity 86    
Minimum Humidity 50    
Precipitation  
Precipitation 0.10 in 0.01 in 0.11 in (1960)
Month to date precipitation 0.12 0.05  
Year to date precipitation 4.33 3.14  
Snow  
Snow 0.00 in 0.00 in 0.00 in (2002)
Month to date snowfall 0.0 0.0  
Year to date snowfall 21.5 8.6  
Since 1 July snowfall 25.9 21.6  
Snow Depth 0.00 in    
Sea Level Pressure  
Sea Level Pressure 29.72 in    
Wind  
Wind Speed 5 mph (WSW)    
Max Wind Speed 22 mph    
Max Gust Speed 28 mph    
Visibility 10 miles    
Events Rain    
T = Trace of Precipitation, MM = Missing Value Source: NWS Daily Summary

Daily Weather History Graph

Daily Weather History Graph

Search for Another Location

Airport or City:

Trip Planner

Search our weather history database for the weather conditions in past years. The results will help you decide how hot, cold, wet, or windy it might be!

Date:

Astronomy

May. 03, 2012 Rise Set
Actual Time 5:43 AM PDT 8:15 PM PDT
Civil Twilight 5:09 AM PDT 8:49 PM PDT
Nautical Twilight 4:27 AM PDT 9:31 PM PDT
Astronomical Twilight 3:38 AM PDT 10:21 PM PDT
Moon 5:38 PM PDT (5/3) 4:00 AM PDT (5/3)
Length of Visible Light 15h 39m
Length of Day
14h 31m
Waxing Gibbous, 92% of the Moon is Illuminated
May 3
Waxing Gibbous
May 5
Full
May 12
Last Quarter
May 20
New
May 28
First Quarter

Hourly Weather History & Observations

Time (PDT) Temp. Windchill Dew Point Humidity Pressure Visibility Wind Dir Wind Speed Gust Speed Precip Events Conditions
12:53 AM 50.0 °F - 32.0 °F 50% 29.75 in 10.0 mi SW 4.6 mph - N/A   Overcast
1:53 AM 50.0 °F - 32.0 °F 50% 29.72 in 10.0 mi West 4.6 mph - N/A   Overcast
2:53 AM 50.0 °F - 34.0 °F 54% 29.73 in 10.0 mi WSW 3.5 mph - 0.00 in Rain Light Rain
3:53 AM 48.0 °F - 37.0 °F 66% 29.70 in 10.0 mi West 6.9 mph - 0.00 in   Overcast
4:53 AM 48.0 °F - 37.9 °F 68% 29.70 in 10.0 mi WSW 4.6 mph - 0.00 in Rain Light Rain
5:53 AM 46.0 °F 43.1 °F 39.9 °F 79% 29.71 in 10.0 mi West 5.8 mph - 0.01 in Rain Light Rain
6:53 AM 45.0 °F 41.8 °F 39.9 °F 82% 29.70 in 10.0 mi West 5.8 mph - 0.02 in Rain Light Rain
7:53 AM 46.0 °F 44.8 °F 42.1 °F 86% 29.70 in 7.0 mi WSW 3.5 mph - 0.02 in Rain Light Rain
8:53 AM 46.9 °F - 42.1 °F 83% 29.69 in 10.0 mi West 4.6 mph - 0.01 in   Overcast
9:53 AM 46.9 °F - 41.0 °F 80% 29.69 in 8.0 mi West 4.6 mph - 0.00 in Rain Light Rain
10:24 AM 46.4 °F 45.2 °F 39.2 °F 76% 29.68 in 7.0 mi WNW 3.5 mph - 0.01 in Rain Light Rain
10:53 AM 48.0 °F - 41.0 °F 77% 29.68 in 10.0 mi WNW 4.6 mph - 0.02 in   Overcast
11:53 AM 48.9 °F - 41.0 °F 74% 29.68 in 9.0 mi Calm Calm - 0.00 in Rain Light Rain
12:53 PM 50.0 °F - 42.1 °F 74% 29.68 in 9.0 mi Calm Calm - 0.00 in Rain Light Rain
1:53 PM 50.0 °F - 44.1 °F 80% 29.68 in 9.0 mi West 3.5 mph - 0.01 in Rain Light Rain
2:12 PM 51.8 °F - 44.6 °F 76% 29.67 in 10.0 mi Variable 3.5 mph - 0.01 in Rain Light Rain
2:19 PM 51.8 °F - 44.6 °F 76% 29.67 in 10.0 mi Calm Calm - 0.01 in   Overcast
2:53 PM 52.0 °F - 43.0 °F 71% 29.67 in 10.0 mi Calm Calm - 0.01 in   Mostly Cloudy
3:53 PM 55.0 °F - 44.1 °F 67% 29.66 in 10.0 mi Calm Calm - N/A   Mostly Cloudy
4:53 PM 57.0 °F - 44.1 °F 62% 29.66 in 10.0 mi ESE 5.8 mph - N/A   Mostly Cloudy
5:53 PM 57.9 °F - 43.0 °F 58% 29.68 in 10.0 mi SW 15.0 mph 21.9 mph N/A   Mostly Cloudy
6:53 PM 57.0 °F - 41.0 °F 55% 29.69 in 10.0 mi SSW 17.3 mph 25.3 mph N/A   Mostly Cloudy
7:53 PM 54.0 °F - 39.9 °F 59% 29.72 in 10.0 mi SW 16.1 mph 25.3 mph N/A   Mostly Cloudy
8:53 PM 53.1 °F - 41.0 °F 64% 29.78 in 10.0 mi WSW 4.6 mph - N/A   Scattered Clouds
9:53 PM 52.0 °F - 36.0 °F 54% 29.83 in 10.0 mi WSW 8.1 mph - N/A   Clear
10:53 PM 48.0 °F - 35.1 °F 61% 29.86 in 10.0 mi Calm Calm - N/A   Clear
11:53 PM 46.9 °F - 35.1 °F 63% 29.89 in 10.0 mi Calm Calm - N/A   Clear